Zurück zum Katalog

COSMOS 2251 DEB

AktivLEO
NORAD 34796·DEBRIS·🇷🇺 Russia

Gestartet Jun 16, 1993 von Plesetsk Cosmodrome

Loading…

Nächste Überflüge (nächste 24 Stunden)

TLE

AktuellSource: Space-Track

Epoche: Sep 14, 2026, 10:43 UTC

1 34796U 93036AAZ 26257.44666780  .00001527  00000-0  37916-3 0  9997
2 34796  74.0287  58.8410 0097888  93.3224 298.6292 14.49831767920221

Verfolge COSMOS 2251 DEB in Echtzeit mit AllMySat

Download on the App Store